Weather History for Martinsburg, WV

Change the Weather History Date:

Sunday, March 16, 2014

  Actual Average Record
Temperature  
Mean Temperature 35 °F 42 °F  
Max Temperature 44 °F 53 °F 84 °F (1945)
Min Temperature 26 °F 31 °F 10 °F (1993)
Degree Days  
Heating Degree Days 30 23  
Month to date heating degree days 457 410  
Since 1 July heating degree days 4550 4366  
Cooling Degree Days 0 0  
Month to date cooling degree days 0 0  
Year to date cooling degree days 0 0  
Moisture  
Dew Point 23 °F    
Average Humidity 58    
Maximum Humidity 85    
Minimum Humidity 30    
Precipitation  
Precipitation 0.01 in 0.12 in 1.15 in (1982)
Month to date precipitation 0.45 1.68  
Year to date precipitation 4.20 6.46  
Sea Level Pressure  
Sea Level Pressure 30.13 in    
Wind  
Wind Speed 9 mph (NE)    
Max Wind Speed 20 mph    
Max Gust Speed 23 mph    
Visibility 4 miles    
Events Snow    
T = Trace of Precipitation, MM = Missing Value Source: NWS Daily Summary

Daily Weather History Graph

Daily Weather History Graph

Search for Another Location

Airport:

Trip Planner

Search our weather history database for the weather conditions in past years. The results will help you decide how hot, cold, wet, or windy it might be!

Date:

Astronomy

Mar. 16, 2014 Rise Set
Actual Time 7:21 AM EDT 7:19 PM EDT
Civil Twilight 6:55 AM EDT 7:46 PM EDT
Nautical Twilight 6:23 AM EDT 8:17 PM EDT
Astronomical Twilight 5:52 AM EDT 8:49 PM EDT
Moon 7:35 PM EDT (3/16) 7:04 AM EDT (3/16)
Length of Visible Light 12h 51m
Length of Day
11h 58m
Full, 100% of the Moon is Illuminated
Mar 16
Full
Mar 16
Full
Mar 23
Last Quarter
Mar 30
New
Apr 7
First Quarter

Hourly Weather History & Observations

Time (EDT) Temp. Windchill Dew Point Humidity Pressure Visibility Wind Dir Wind Speed Gust Speed Precip Events Conditions
12:53 AM 43.0 °F 38.8 °F 23.0 °F 45% 30.10 in 10.0 mi NNE 6.9 mph - N/A   Clear
1:53 AM 42.1 °F 36.6 °F 25.0 °F 51% 30.11 in 10.0 mi North 9.2 mph - N/A   Clear
2:53 AM 39.9 °F 31.8 °F 26.1 °F 58% 30.10 in 10.0 mi NNW 15.0 mph - N/A   Clear
3:53 AM 37.9 °F 30.0 °F 26.1 °F 62% 30.12 in 10.0 mi NNW 12.7 mph - N/A   Clear
4:53 AM 37.0 °F 29.3 °F 25.0 °F 62% 30.13 in 10.0 mi North 11.5 mph - N/A   Clear
5:53 AM 37.0 °F 32.4 °F 23.0 °F 57% 30.15 in 10.0 mi North 5.8 mph - N/A   Clear
6:53 AM 36.0 °F 27.5 °F 23.0 °F 59% 30.16 in 10.0 mi NNE 12.7 mph - N/A   Clear
7:53 AM 35.1 °F 29.3 °F 21.0 °F 57% 30.18 in 10.0 mi NNE 6.9 mph - N/A   Clear
8:53 AM 35.1 °F 25.9 °F 19.0 °F 52% 30.18 in 10.0 mi NNE 13.8 mph 23.0 mph N/A   Clear
9:53 AM 37.9 °F 32.1 °F 16.0 °F 41% 30.19 in 10.0 mi North 8.1 mph - N/A   Clear
10:53 AM 39.9 °F - 17.1 °F 40% 30.20 in 10.0 mi North - - N/A   Clear
11:53 AM 39.9 °F 34.5 °F 16.0 °F 38% 30.19 in 10.0 mi North 8.1 mph 16.1 mph N/A   Clear
12:53 PM 39.9 °F 32.9 °F 14.0 °F 35% 30.19 in 10.0 mi North 11.5 mph - N/A   Clear
1:53 PM 41.0 °F 34.7 °F 12.9 °F 32% 30.19 in 10.0 mi NNE 10.4 mph - N/A   Scattered Clouds
2:53 PM 39.9 °F 35.8 °F 12.0 °F 32% 30.18 in 10.0 mi NNE 5.8 mph - N/A   Overcast
3:53 PM 37.0 °F 32.4 °F 16.0 °F 42% 30.18 in 3.0 mi Variable 5.8 mph - 0.00 in Snow Light Snow
4:53 PM 34.0 °F 26.6 °F 21.9 °F 61% 30.17 in 2.5 mi ENE 9.2 mph - 0.00 in Snow Light Snow
5:14 PM 32.0 °F 23.6 °F 26.1 °F 79% 30.15 in 0.8 mi East 10.4 mph - 0.00 in Snow Light Snow
5:53 PM 30.9 °F 25.2 °F 27.0 °F 85% 30.16 in 0.8 mi NE 5.8 mph - 0.00 in Snow Light Snow
6:33 PM 30.9 °F 24.3 °F 27.0 °F 85% 30.12 in 0.8 mi North 6.9 mph - 0.00 in Snow Light Snow
6:40 PM 30.9 °F 23.5 °F 27.0 °F 85% 30.12 in 1.0 mi NNE 8.1 mph - 0.00 in Snow Light Snow
6:53 PM 30.9 °F 22.8 °F 27.0 °F 85% 30.14 in 1.5 mi North 9.2 mph - 0.00 in Snow Light Snow
7:07 PM 30.0 °F 21.1 °F 26.1 °F 85% 30.12 in 1.5 mi North 10.4 mph - 0.00 in Snow Light Snow
7:31 PM 30.0 °F 21.1 °F 26.1 °F 85% 30.12 in 1.5 mi North 10.4 mph - 0.00 in Snow Light Snow
7:53 PM 30.0 °F 21.1 °F 27.0 °F 88% 30.12 in 1.2 mi NNE 10.4 mph - 0.00 in Snow Light Snow
8:19 PM 30.0 °F 20.0 °F 26.1 °F 85% 30.09 in 1.5 mi NE 12.7 mph - 0.00 in Snow Light Snow
8:53 PM 28.9 °F 19.2 °F 24.1 °F 82% 30.12 in 1.0 mi ENE 11.5 mph - 0.00 in Snow Light Snow
9:13 PM 28.0 °F 19.3 °F 24.1 °F 85% 30.11 in 1.0 mi NE 9.2 mph - 0.00 in Snow Light Snow
9:43 PM 28.0 °F 20.0 °F 24.1 °F 85% 30.09 in 0.8 mi ENE 8.1 mph - 0.00 in Snow Light Snow
9:53 PM 28.0 °F 19.3 °F 24.1 °F 85% 30.10 in 0.8 mi ENE 9.2 mph - 0.00 in Snow Light Snow
10:00 PM 28.0 °F 20.0 °F 24.1 °F 85% 30.10 in 1.5 mi ENE 8.1 mph - 0.00 in Snow Light Snow
10:11 PM 27.0 °F 19.5 °F 23.0 °F 85% 30.10 in 2.5 mi East 6.9 mph - 0.00 in Snow Light Snow
10:23 PM 27.0 °F 19.5 °F 21.9 °F 81% 30.09 in 1.0 mi ENE 6.9 mph - 0.00 in Snow Light Snow
10:49 PM 26.6 °F 22.6 °F 23.0 °F 86% 30.10 in 1.0 mi East 3.5 mph - 0.01 in Snow Light Snow
10:53 PM 27.0 °F 20.5 °F 23.0 °F 85% 30.11 in 1.0 mi East 5.8 mph - 0.01 in Snow Light Snow
11:00 PM 27.0 °F 20.5 °F 23.0 °F 85% 30.11 in 1.2 mi East 5.8 mph - 0.00 in Snow Light Snow
11:12 PM 27.0 °F 19.5 °F 23.0 °F 85% 30.11 in 1.0 mi East 6.9 mph - 0.00 in Snow Light Snow
11:20 PM 26.1 °F 18.4 °F 23.0 °F 88% 30.10 in 1.0 mi East 6.9 mph - 0.00 in Snow Light Snow
11:38 PM 26.1 °F 18.4 °F 23.0 °F 88% 30.10 in 0.8 mi ENE 6.9 mph - 0.00 in Snow Light Snow
11:50 PM 26.6 °F 20.0 °F 23.0 °F 86% 30.10 in 1.0 mi NE 5.8 mph - 0.00 in Snow Light Snow
11:51 PM 26.1 °F 19.4 °F 23.0 °F 88% 30.12 in 1.0 mi NE 5.8 mph - 0.00 in Snow Light Snow